Regional Weather Roundup
Issued by NWS

Home | Current Version | Previous Version | Graphics & Text | Print | Product List | Glossary Off
Versions: 1 2 3 4 5 6 7 8 9 10 11 12 13 14 15 16 17 18 19 20 21 22 23 24 25 26 27 28 29 30 31 32 33 34 35 36 37 38 39 40 41 42 43 44 45 46 47 48 49 50

000
ASUS44 KFWD 210003
RWRTX
NORTH TEXAS HOURLY WEATHER ROUNDUP
NATIONAL WEATHER SERVICE FORT WORTH TX
700 PM CDT SUN MAY 20 2018

NOTE: "FAIR" INDICATES FEW OR NO CLOUDS BELOW 12,000 FEET WITH NO
SIGNIFICANT WEATHER AND/OR OBSTRUCTIONS TO VISIBILITY.

TXZ118-119-210100-
DALLAS/FORT WORTH METROPLEX

CITY           SKY/WX    TMP DP  RH WIND       PRES   REMARKS
DFW AIRPORT    PTSUNNY   78  65  63 S7        29.98R
6HR MIN TEMP:  72; 6HR MAX TEMP:  80;

DALLAS LOVE    CLOUDY    80  65  59 VRB6      29.98S
6HR MIN TEMP:  72; 6HR MAX TEMP:  82;

FTW MEACHAM    FAIR      80  66  62 SE10      29.98S
6HR MIN TEMP:  74; 6HR MAX TEMP:  83;

DAL-EXECUTIVE  FAIR      77  65  66 S5        29.98S
6HR MIN TEMP:  70; 6HR MAX TEMP:  80; 6HR PCP: TRACE;

FTW-ALLIANCE   PTSUNNY   79  66  64 S10       29.98S
6HR MIN TEMP:  75; 6HR MAX TEMP:  81;

FTW-NAS-JRB    FAIR      79  64  60 SE7       29.99S
6HR MIN TEMP:  73; 6HR MAX TEMP:  82;

FTW-SPINKS     SUNNY     77  66  69 SE5       30.01S
ARLINGTON      FAIR      76  66  71 S6        29.99S
6HR MIN TEMP:  70; 6HR MAX TEMP:  79;

GRAND PRAIRIE  SUNNY     79  63  57 S5        30.01
ADDISON        SUNNY     79  63  57 S8        30.00R
MESQUITE       SUNNY     75  64  69 S5        30.00R
LANCASTER      FAIR      76  65  70 SW3       30.00F
6HR MIN TEMP:  68; 6HR MAX TEMP:  77; 6HR PCP:  0.10;

$$

TXZ091>094-102>105-117-120-121-131>134-210100-
NORTH CENTRAL TEXAS

CITY           SKY/WX    TMP DP  RH WIND       PRES   REMARKS
SHRMAN/DENISON FAIR      74  66  75 NW9       30.02R
6HR MIN TEMP:  74; 6HR MAX TEMP:  82;

GAINESVILLE    CLOUDY    73  64  73 N6        30.02S
6HR MIN TEMP:  73; 6HR MAX TEMP:  78;

BOWIE          PTSUNNY   74  64  71 N3        30.01F
6HR MIN TEMP:  73; 6HR MAX TEMP:  77;

BRIDGEPORT     FAIR      77  62  60 N6        30.01F
6HR MIN TEMP:  76; 6HR MAX TEMP:  79;

DECATUR        FAIR      76  64  66 CALM      30.00F
6HR MIN TEMP:  75; 6HR MAX TEMP:  79;

DENTON         FAIR      79  65  62 CALM      29.98F
6HR MIN TEMP:  74; 6HR MAX TEMP:  81;

MCKINNEY       FAIR      79  64  60 S8        29.99S
6HR MIN TEMP:  71; 6HR MAX TEMP:  81;

BONHAM         FAIR      77  67  71 NW3       29.99R
6HR MIN TEMP:  72; 6HR MAX TEMP:  82;

GREENVILLE     FAIR      81  63  54 W5        29.98F
ROCKWALL       FAIR      76  64  64 SW7       30.00S
6HR MIN TEMP:  69; 6HR MAX TEMP:  79;

TERRELL        FAIR      78  63  59 W5        29.99S
6HR MIN TEMP:  70; 6HR MAX TEMP:  79; 6HR PCP:  0.08;

WAXAHACHIE     FAIR      75  66  74 CALM      30.00F
6HR MIN TEMP:  67; 6HR MAX TEMP:  78; 6HR PCP:  0.05;

CLEBURNE       FAIR      75  68  78 S7        30.01S
GRANBURY       FAIR      78  67  67 SE10      30.00S
6HR MIN TEMP:  75; 6HR MAX TEMP:  83;

$$

TXZ083>090-098>101-113>116-127>130-139>142-154-155-210100-
WESTERN NORTH TEXAS

CITY           SKY/WX    TMP DP  RH WIND       PRES   REMARKS
WICHITA FALLS  FAIR      74  61  63 E7        30.01F
6HR MIN TEMP:  72; 6HR MAX TEMP:  78;

WF-KICKAPOO    FAIR      76  61  60 NE7       30.03F
6HR MIN TEMP:  71; 6HR MAX TEMP:  77;

VERNON         FAIR      77  59  54 E5        30.03F
6HR MIN TEMP:  62; 6HR MAX TEMP:  77;

ABILENE        FAIR      76  61  59 E12       30.01F
6HR MIN TEMP:  71; 6HR MAX TEMP:  78;

ABILENE-DYESS  FAIR      76  58  51 N13       30.01S
6HR MIN TEMP:  72; 6HR MAX TEMP:  77;

GRAHAM           N/A     78  62  58 NE7       29.99S
6HR MIN TEMP:  75; 6HR MAX TEMP:  81;

BRECKENRIDGE   FAIR      80  57  45 NE9       29.99F
6HR MIN TEMP:  78; 6HR MAX TEMP:  83;

CISCO          CLOUDY    81  59  47 NE9       30.00F
EASTLAND       CLOUDY    79  60  52 NE9       29.99S
6HR MIN TEMP:  78; 6HR MAX TEMP:  83;

RANGER         FAIR      78  62  56 E6        30.01R
MINERAL WELLS  FAIR      78  64  61 NE8       29.98F
6HR MIN TEMP:  77; 6HR MAX TEMP:  83;

STEPHENVILLE   FAIR      78  65  65 E7        30.02S
6HR MIN TEMP:  76; 6HR MAX TEMP:  82;

COMANCHE       FAIR      79  63  57 E9        29.99S
6HR MIN TEMP:  77; 6HR MAX TEMP:  82;

BROWNWOOD      FAIR      79  59  50 E8        29.98S
COLEMAN        FAIR      82  56  41 SE7       29.99S
6HR MIN TEMP:  80; 6HR MAX TEMP:  85;

BRADY          FAIR      75  61  60 E7        29.99S
$$

TXZ143>147-156>162-174-175-210100-
CENTRAL TEXAS

CITY           SKY/WX    TMP DP  RH WIND       PRES   REMARKS
WACO           FAIR      73  66  78 SE6       30.00R
6HR MIN TEMP:  67; 6HR MAX TEMP:  75; 6HR PCP:  0.28;

WACO-TSTC      MOSUNNY   73  68  83 SE3       30.00R
WACO-MCGREGOR  FAIR      72  67  84 E6        30.01R
6HR MIN TEMP:  67; 6HR MAX TEMP:  72; 6HR PCP:  0.18;

HILLSBORO      FAIR      74  68  81 CALM      29.99F
6HR MIN TEMP:  67; 6HR MAX TEMP:  78; 6HR PCP:  0.08;

CORSICANA      FAIR      73  64  73 SE13      29.99S
6HR MIN TEMP:  69; 6HR MAX TEMP:  74;

MEXIA          FAIR      71  66  85 SE6       29.98S
6HR MIN TEMP:  67; 6HR MAX TEMP:  71; 6HR PCP:  0.60;

HEARNE         FAIR      69  69  99 SE6       29.99S
6HR MIN TEMP:  69; 6HR MAX TEMP:  77; 6HR PCP:  0.47;

CAMERON        FAIR      71  68  91 E8        29.98S
6HR MIN TEMP:  69; 6HR MAX TEMP:  71; 6HR PCP:  0.51;

TEMPLE         CLOUDY    72  68  87 E7        30.01R
6HR MIN TEMP:  66; 6HR MAX TEMP:  73; 6HR PCP:  0.21;

KILLEEN        NOT AVBL
KILLEEN-SKYLRK CLOUDY    73  68  84 SE7       30.00F
6HR MIN TEMP:  65; 6HR MAX TEMP:  75; 6HR PCP:  0.08;

FORT HOOD      CLOUDY    73  67  82 E10       29.96F
6HR MIN TEMP:  65; 6HR MAX TEMP:  74; 6HR PCP:  0.11;

GATESVILLE     FAIR      73  68  83 VRB5      30.02F
HAMILTON       FAIR      74  67  78 SE10      30.02R
6HR MIN TEMP:  70; 6HR MAX TEMP:  79;

LAMPASAS       FAIR      73  67  82 E10       29.99R
6HR MIN TEMP:  64; 6HR MAX TEMP:  79;

$$

TXZ095>097-106>112-122>126-135>138-148>153-164>167-210100-
EAST TEXAS

CITY           SKY/WX    TMP DP  RH WIND       PRES   REMARKS
PARIS          PTSUNNY   79  67  66 W7        29.99S
6HR MIN TEMP:  79; 6HR MAX TEMP:  84;

SULPHUR SPRNGS FAIR      77  66  68 CALM      30.01S
6HR MIN TEMP:  77; 6HR MAX TEMP:  82;

MOUNT PLEASANT FAIR      78  67  69 W3        29.99F
6HR MIN TEMP:  78; 6HR MAX TEMP:  90;

GILMER         TSTM      74  64  68 S6        29.97F
6HR MIN TEMP:  74; 6HR MAX TEMP:  88;

MINEOLA        FAIR      73  66  78 N6        29.98R
TYLER          FAIR      73  70  90 CALM      29.97F
6HR MIN TEMP:  70; 6HR MAX TEMP:  90; 6HR PCP:  0.27;

LONGVIEW       LGT RAIN  72  71  97 S8        29.97F
6HR MIN TEMP:  72; 6HR MAX TEMP:  90; 6HR PCP:  0.05;

MARSHALL       FAIR      73  67  81 CALM      30.00F
6HR MIN TEMP:  71; 6HR MAX TEMP:  90; 6HR PCP:  0.03;

ATHENS         FAIR      68  68 100 CALM      29.96R
PALESTINE      FAIR      70  67  92 SW3       29.99R
JACKSONVILLE   LGT RAIN  69  69 100 E5        30.01F
HENDERSON      CLOUDY    71  68  90 S3        30.00F
6HR MIN TEMP:  71; 6HR MAX TEMP:  89;

CENTER         FAIR      72  69  92 NW5       30.02S
6HR MIN TEMP:  71; 6HR MAX TEMP:  90; 6HR PCP:  0.36;

NACOGDOCHES    LGT RAIN  70  69  97 W7        30.02F
6HR MIN TEMP:  68; 6HR MAX TEMP:  92; 6HR PCP:  0.78;

LUFKIN         RAIN      70  69  97 CALM      30.04R FOG
6HR MIN TEMP:  70; 6HR MAX TEMP:  92; 6HR PCP:  0.43;

$$

SUPPLEMENTAL OBSERVATIONS (NWS FORT WORTH AREA)

CITY           SKY/WX    TMP DP  RH WIND       PRES



USA.gov is the U.S. government's official web portal to all federal, state and local government web resources and services.